{"data":{"norad_id":57127,"epoch":"2026-09-20T08:07:57.434016Z","epoch_age_seconds":134853,"freshness":"FRESH","line1":"1 57127U 23090AC  26263.33885919 -.00000136  00000+0  45818-5 0  9992","line2":"2 57127  43.0010 262.0857 0001274 259.7057 100.3651 15.27574974179915","mean_motion":15.27574974,"eccentricity":0.0001274,"inclination_deg":43.001,"raan_deg":262.0857,"arg_perigee_deg":259.7057,"mean_anomaly_deg":100.3651,"bstar":4.5818e-6,"rev_number":17991,"period_min":94.267058868431,"perigee_km":482.19002870704,"apogee_km":483.93826275898,"semimajor_km":6861.201145733,"source":"CELESTRAK","updated_at":"2026-09-21T09:00:33.563402Z"}}